DG9BJA-13 Weather Reports


time (UTC)temp
C
wind
direction
speed
KPH
gust
KPH
rain 1hr
cm
rain 24hr
cm
rain mn
cm
humidity
%
barometer
mb
20260507055616 7 0 4.8 6.4 0.00 1.57 0.00 95 1013.1
20260507054616 7 0 3.2 3.2 0.00 1.60 0.00 95 1013.1
20260507053616 7 338 3.2 9.7 0.00 1.63 0.00 95 1013.1
20260507052616 7 315 3.2 4.8 0.00 1.65 0.00 95 1012.9
20260507051616 7 0 3.2 4.8 0.00 1.65 0.00 95 1012.9
20260507050616 6 338 4.8 6.4 0.00 1.68 0.00 95 1012.7
20260507045616 6 338 4.8 6.4 0.00 1.70 0.00 95 1012.6
20260507044615 6 338 3.2 4.8 0.00 1.73 0.00 95 1012.6
20260507043615 6 0 3.2 4.8 0.00 1.78 0.00 95 1012.5
20260507042615 7 338 4.8 6.4 0.00 1.80 0.00 95 1012.4
20260507041616 7 338 3.2 4.8 0.00 1.83 0.00 95 1012.4
20260507040616 7 338 3.2 4.8 0.00 1.85 0.00 95 1012.3
20260507035615 7 0 3.2 4.8 0.00 1.88 0.00 95 1012.0
20260507034616 7 0 1.6 3.2 0.00 1.91 0.00 95 1012.0
20260507033615 7 0 3.2 4.8 0.00 1.93 0.00 95 1012.0
20260507032616 6 338 1.6 3.2 0.00 1.96 0.00 95 1012.0
20260507031615 6 338 1.6 3.2 0.00 2.01 0.00 94 1012.0
20260507030615 6 338 1.6 3.2 0.00 2.03 0.00 94 1012.0
20260507025615 7 338 1.6 3.2 0.00 2.08 0.00 94 1011.7
20260507024617 7 0.0 1.6 0.00 2.13 0.00 94 1011.7
20260507023617 7 338 1.6 3.2 0.00 2.18 0.00 94 1011.5
20260507022617 7 0.0 1.6 0.00 2.24 0.00 94 1011.5
20260507021618 7 338 1.6 3.2 0.00 2.29 0.00 94 1011.5
20260507020617 7 338 1.6 3.2 0.00 2.34 0.00 94 1011.5
20260507015617 7 338 3.2 4.8 0.00 2.39 0.00 94 1011.5
20260507014617 7 338 3.2 4.8 0.00 2.44 0.00 94 1011.5
20260507013617 7 0 3.2 4.8 0.00 2.49 0.00 94 1011.4
20260507012617 7 0.0 1.6 0.00 2.54 0.00 94 1011.3
20260507011617 7 0 1.6 3.2 0.00 2.57 0.00 94 1011.3
20260507010617 7 0 1.6 3.2 0.00 2.59 0.00 94 1011.1
20260507005617 7 0 1.6 3.2 0.00 2.62 0.00 94 1011.1
20260507004617 7 0 1.6 3.2 0.00 2.64 0.00 93 1011.1
20260507003617 7 338 3.2 4.8 0.00 2.64 0.00 93 1011.0
20260507002617 7 0 1.6 3.2 0.00 2.67 0.00 93 1011.0
20260507001616 7 0 3.2 3.2 0.00 2.69 0.00 93 1011.0
20260507000617 7 0 3.2 4.8 0.00 2.69 0.00 93 1011.0
20260506235616 7 338 4.8 6.4 0.00 2.69 0.00 93 1011.0
20260506234616 7 338 3.2 6.4 0.00 2.69 0.00 93 1011.0
20260506233617 7 338 3.2 3.2 0.00 2.69 0.00 93 1011.0
20260506232617 8 0 4.8 6.4 0.00 2.69 0.00 93 1011.0
20260506231617 8 338 4.8 8.0 0.00 2.69 0.00 93 1011.0
20260506230616 8 0 4.8 6.4 0.00 2.69 0.00 92 1011.0
20260506225616 8 338 3.2 4.8 0.00 2.69 0.00 92 1010.9
20260506224617 8 0 4.8 6.4 0.00 2.69 0.00 92 1010.9
20260506223616 7 338 6.4 9.7 0.00 2.69 0.00 92 1010.8
20260506222616 8 338 3.2 4.8 0.00 2.69 0.00 92 1010.7
20260506221616 7 338 4.8 6.4 0.00 2.69 0.00 92 1010.7
20260506220616 7 338 4.8 4.8 0.00 2.69 0.00 92 1010.9
20260506215616 7 338 6.4 8.0 0.00 2.69 2.69 92 1010.7
20260506214616 7 338 3.2 4.8 0.00 2.69 2.69 92 1010.7
20260506213616 7 338 3.2 4.8 0.00 2.69 2.69 92 1010.6
20260506212616 7 0 3.2 6.4 0.00 2.69 2.69 93 1010.5
20260506211616 7 0 1.6 1.6 0.00 2.69 2.69 93 1010.5
20260506210616 7 0 3.2 4.8 0.00 2.69 2.69 93 1010.5
20260506205615 7 0 3.2 6.4 0.00 2.69 2.69 93 1010.4
20260506204616 7 338 4.8 6.4 0.00 2.69 2.69 92 1010.4
20260506203616 7 338 6.4 8.0 0.00 2.69 2.69 92 1010.4
20260506202615 7 338 4.8 8.0 0.00 2.69 2.69 92 1010.2
20260506201615 8 338 4.8 8.0 0.00 2.69 2.69 92 1010.2
20260506200615 8 338 4.8 8.0 0.00 2.69 2.69 92 1010.2
20260506195615 8 0 4.8 6.4 0.00 2.69 2.69 92 1010.0
20260506194616 8 23 4.8 8.0 0.00 2.69 2.69 92 1010.0
20260506193615 8 0 6.4 9.7 0.00 2.69 2.69 92 1010.0
20260506192617 8 0 4.8 8.0 0.00 2.69 2.69 92 1010.0
20260506191617 8 0 4.8 8.0 0.00 2.69 2.69 92 1010.0
20260506190617 8 0 4.8 6.4 0.00 2.69 2.69 93 1009.8
20260506185617 8 0 4.8 8.0 0.00 2.69 2.69 93 1009.7
20260506184617 8 338 6.4 8.0 0.00 2.69 2.69 93 1009.7
20260506183617 8 0 6.4 8.0 0.00 2.69 2.69 93 1009.5
20260506182617 8 0 6.4 9.7 0.00 2.69 2.69 93 1009.4
20260506181617 8 0 3.2 6.4 0.00 2.69 2.69 93 1009.4
20260506180617 8 0 6.4 9.7 0.00 2.69 2.69 93 1009.2
20260506175617 8 23 8.0 9.7 0.00 2.69 2.69 93 1009.1
20260506174617 8 23 8.0 12.9 0.00 2.69 2.69 94 1009.1
20260506173617 8 23 8.0 11.3 0.03 2.69 2.69 94 1009.0
20260506172617 8 23 8.0 16.1 0.03 2.69 2.69 94 1008.9
20260506171617 8 23 12.9 16.1 0.03 2.69 2.69 94 1008.9
20260506170617 8 23 11.3 17.7 0.05 2.69 2.69 94 1008.9
20260506165617 8 23 8.0 12.9 0.05 2.69 2.69 94 1008.9
20260506164617 8 23 6.4 8.0 0.05 2.69 2.69 95 1008.9
20260506163616 8 0 8.0 11.3 0.03 2.67 2.67 95 1008.9
20260506162616 8 23 8.0 11.3 0.05 2.67 2.67 95 1008.9
20260506161616 8 0 6.4 9.7 0.05 2.67 2.67 95 1008.9
20260506160616 8 0 4.8 6.4 0.03 2.64 2.64 95 1008.9
20260506155616 7 23 4.8 8.0 0.05 2.64 2.64 95 1008.9
20260506154617 7 23 8.0 11.3 0.08 2.64 2.64 95 1008.9
20260506153616 7 45 8.0 11.3 0.08 2.64 2.64 94 1008.9
20260506152616 7 23 9.7 16.1 0.08 2.62 2.62 94 1008.9
20260506151617 7 23 8.0 17.7 0.13 2.62 2.62 94 1008.9
20260506150616 7 45 14.5 22.5 0.15 2.62 2.62 95 1008.9
20260506145616 7 23 17.7 24.1 0.15 2.59 2.59 95 1008.9
20260506144616 7 23 12.9 20.9 0.18 2.57 2.57 95 1008.9
20260506143616 7 45 12.9 19.3 0.20 2.57 2.57 95 1008.9
20260506142616 7 23 8.0 11.3 0.20 2.54 2.54 95 1008.9
20260506141616 7 23 8.0 14.5 0.18 2.49 2.49 95 1008.9
20260506140616 7 45 9.7 16.1 0.15 2.46 2.46 95 1008.9
20260506135616 7 45 11.3 19.3 0.18 2.44 2.44 95 1008.8
20260506134616 7 45 14.5 22.5 0.15 2.39 2.39 95 1008.8
20260506133616 7 0 6.4 9.7 0.18 2.36 2.36 95 1008.6
20260506132616 7 0 6.4 8.0 0.20 2.34 2.34 95 1008.4
20260506131615 7 0 6.4 9.7 0.20 2.31 2.31 95 1008.4
20260506130616 7 0 4.8 6.4 0.25 2.31 2.31 95 1008.4
20260506125616 7 23 9.7 12.9 0.23 2.26 2.26 95 1008.4
20260506124615 7 45 8.0 11.3 0.25 2.24 2.24 95 1008.4
20260506123616 7 23 6.4 11.3 0.23 2.18 2.18 95 1008.4
20260506122615 7 23 6.4 8.0 0.23 2.16 2.13 95 1008.4
20260506121616 7 45 12.9 20.9 0.23 2.13 2.11 95 1008.4
20260506120615 7 23 14.5 19.3 0.23 2.08 2.06 95 1008.3
20260506115615 7 23 16.1 22.5 0.23 2.06 2.03 95 1008.3
20260506114615 7 23 9.7 11.3 0.23 2.01 1.98 95 1008.3
20260506113615 7 0 9.7 19.3 0.23 2.01 1.96 95 1008.1
20260506112615 7 23 11.3 17.7 0.20 1.96 1.91 95 1008.0
20260506111615 7 45 17.7 24.1 0.23 1.93 1.88 95 1008.0
20260506110615 7 45 14.5 20.9 0.20 1.88 1.83 95 1007.9
20260506105617 7 45 9.7 16.1 0.23 1.85 1.80 95 1007.9
20260506104617 7 45 9.7 12.9 0.20 1.80 1.75 95 1007.9
20260506103617 7 45 11.3 17.7 0.18 1.78 1.73 95 1007.9
20260506102617 7 0 8.0 11.3 0.18 1.75 1.70 95 1007.8
20260506101617 7 0 11.3 17.7 0.13 1.70 1.65 95 1007.8
20260506100617 7 23 9.7 16.1 0.13 1.68 1.63 95 1007.7
20260506095617 7 45 8.0 11.3 0.08 1.63 1.57 95 1007.7
20260506094617 7 23 9.7 11.3 0.08 1.60 1.55 95 1007.7
20260506093617 7 23 8.0 12.9 0.08 1.60 1.55 95 1007.5
20260506092617 6 23 8.0 11.3 0.10 1.57 1.52 95 1007.4
20260506091617 6 23 9.7 14.5 0.10 1.57 1.52 95 1007.4
20260506090617 6 0 6.4 11.3 0.10 1.55 1.50 95 1007.4
20260506085617 6 23 8.0 11.3 0.10 1.55 1.50 95 1007.4
20260506084617 6 23 14.5 17.7 0.10 1.52 1.47 95 1007.4
20260506083617 6 45 11.3 17.7 0.10 1.52 1.47 95 1007.4
20260506082616 6 23 8.0 14.5 0.08 1.47 1.42 95 1007.4
20260506081616 6 23 12.9 19.3 0.10 1.47 1.42 95 1007.4
20260506080617 6 23 12.9 17.7 0.10 1.45 1.40 95 1007.4
20260506072616 6 45 11.3 17.7 0.18 1.40 1.35 95 1007.3
20260506071616 6 23 6.4 9.7 0.18 1.37 1.32 95 1007.3
20260506070616 6 45 6.4 9.7 0.18 1.35 1.30 94 1007.3
20260506061616 6 45 12.9 17.7 0.10 1.19 1.14 94 1007.0
20260506060616 6 23 11.3 17.7 0.10 1.17 1.12 94 1006.9